STARLINK-2248 (48591 NORAD) Tracking and Keplerian Element Data

This shows tracking and keplerian element data for the satellite.

Feedback or suggestion? Click here.




ElementValue
Catalog48591
NameSTARLINK-2248
Epoch Orbit1289
Epoch Day214.74182197
Epoch Year2021
RAAN113.1917
Inclination53.0576
Eccentricity0.0002152
Argument of Perigee95.82
Mean Anonmoly264.3034
Mean Motion15.06397216
Decay Rate4.99E-06
L11 48591U 21041AQ 21214.74182197 .00000499 00000-0 52409-4 0 9990
L22 48591 53.0576 113.1917 0002152 95.8200 264.3034 15.06397216 12894

Live tracking and technical data element details for STARLINK-2248 (NORAD 48591). STARLINK-2248 can be tracked NOW for your location showing map with azimuth and elevation plus other details from your city location.

Track the satellite on the map from your city or location and see movement details for azimuth, elevation, latitude, longitude, range, height, and movement on the map or in text.







IsCatalogInMostPopularTable: catalog: 48591, numindb: 20
Update: records affected: 1



GetName: 48591 STARLINK-2248

Hit Count: updated at: Tue, 03 Aug 2021 21:35:00 GMT